W5IM Weather Reports


Display with metric or nautical units.
time (UTC)temp
F
wind
direction
speed
MPH
gust
MPH
rain 1hr
in
rain 24hr
in
rain mn
in
humidity
%
barometer
mb
20260509082516 76 12 3.0 6.0 0.00 0.00 0.00 91 1008.4
20260509082017 76 44 5.0 6.0 0.00 0.00 0.00 91 1008.3
20260509081516 76 47 4.0 6.0 0.00 0.00 0.00 91 1008.5
20260509081016 77 10 5.0 8.0 0.00 0.00 0.00 91 1008.3
20260509080516 76 67 6.0 8.0 0.00 0.00 0.00 92 1008.2
20260509080016 76 57 3.0 7.0 0.00 0.00 0.00 92 1008.3
20260509075516 76 85 5.0 8.0 0.00 0.00 0.00 92 1008.2
20260509075016 76 95 6.0 8.0 0.00 0.00 0.00 92 1008.2
20260509074516 76 68 5.0 7.0 0.00 0.00 0.00 92 1008.3
20260509074016 76 46 6.0 8.0 0.00 0.00 0.00 92 1008.2
20260509073516 76 45 7.0 10.0 0.00 0.00 0.00 92 1008.2
20260509073016 76 13 7.0 10.0 0.00 0.00 0.00 91 1008.2
20260509072516 76 9 6.0 8.0 0.00 0.00 0.00 91 1008.1
20260509071515 76 120 6.0 10.0 0.00 0.00 0.00 91 1007.7
20260509071016 76 118 7.0 10.0 0.00 0.00 0.00 91 1007.8
20260509070516 76 130 7.0 8.0 0.00 0.00 0.00 91 1008.0
20260509070015 76 114 6.0 9.0 0.00 0.00 0.00 91 1007.8
20260509065516 76 112 7.0 9.0 0.00 0.00 0.00 91 1007.9
20260509065016 76 130 7.0 12.0 0.00 0.00 0.00 91 1007.9
20260509064017 76 121 7.0 10.0 0.00 0.00 0.00 91 1008.2
20260509063516 76 127 7.0 9.0 0.00 0.00 0.00 91 1008.4
20260509063015 76 129 6.0 8.0 0.00 0.00 0.00 91 1008.6
20260509062516 76 117 3.0 7.0 0.00 0.00 0.00 90 1008.7
20260509062016 76 88 3.0 7.0 0.00 0.00 0.00 90 1008.8
20260509061516 76 78 3.0 5.0 0.00 0.00 0.00 90 1008.8
20260509061020 76 91 3.0 5.0 0.00 0.00 0.00 90 1008.9
20260509060516 76 101 4.0 6.0 0.00 0.00 0.00 90 1009.1
20260509060016 76 75 5.0 6.0 0.00 0.00 0.00 90 1009.3
20260509055516 76 90 5.0 7.0 0.00 0.00 0.00 90 1009.4
20260509055016 76 79 5.0 7.0 0.00 0.00 0.00 90 1009.3
20260509054516 76 89 5.0 8.0 0.00 0.00 0.00 90 1009.4
20260509054016 76 96 7.0 9.0 0.00 0.00 0.00 90 1009.3
20260509053517 76 87 8.0 10.0 0.00 0.00 0.00 89 1009.4
20260509053016 76 96 6.0 10.0 0.00 0.00 0.00 89 1009.2
20260509052516 76 71 7.0 10.0 0.00 0.00 0.00 89 1009.2
20260509052017 76 92 6.0 10.0 0.00 0.00 0.00 88 1009.2
20260509051515 76 89 9.0 13.0 0.00 0.00 0.00 88 1009.2
20260509051016 76 101 6.0 12.0 0.00 0.00 0.00 88 1009.3
20260509050516 76 83 8.0 12.0 0.00 0.00 0.00 88 1009.2
20260509050016 76 96 7.0 10.0 0.00 0.00 0.00 88 1009.1
20260509045516 76 97 6.0 9.0 0.00 0.00 0.00 88 1009.1
20260509045017 76 98 6.0 9.0 0.00 0.00 0.00 88 1009.0
20260509044516 77 82 7.0 9.0 0.00 0.00 0.00 87 1009.0
20260509043516 77 87 7.0 13.0 0.00 0.00 0.00 87 1008.9
20260509043017 77 80 9.0 12.0 0.00 0.00 0.00 87 1008.9
20260509042516 77 85 9.0 12.0 0.00 0.00 0.00 86 1008.8
20260509042016 77 74 10.0 14.0 0.00 0.00 0.00 86 1008.7
20260509041516 77 75 9.0 14.0 0.00 0.00 0.00 86 1008.7
20260509041016 77 62 7.0 14.0 0.00 0.00 0.00 86 1008.7
20260509040515 77 73 9.0 12.0 0.00 0.00 0.00 86 1008.7
20260509040016 77 66 10.0 14.0 0.00 0.00 0.00 86 1008.8
20260509035516 77 71 8.0 14.0 0.00 0.00 0.00 86 1008.8
20260509035016 77 69 8.0 12.0 0.00 0.00 0.00 86 1008.7
20260509034016 77 96 8.0 12.0 0.00 0.00 0.00 86 1008.3
20260509033516 77 75 9.0 13.0 0.00 0.00 0.00 85 1008.3
20260509032515 78 80 6.0 9.0 0.00 0.00 0.00 85 1008.3
20260509031515 78 75 9.0 12.0 0.00 0.00 0.00 84 1008.0
20260509031016 78 80 6.0 12.0 0.00 0.00 0.00 85 1008.0
20260509030516 78 81 6.0 10.0 0.00 0.00 0.00 84 1007.9
20260509025516 78 85 8.0 12.0 0.00 0.00 0.00 84 1007.7
20260509025016 78 90 7.0 12.0 0.00 0.00 0.00 84 1007.7
20260509024016 79 71 7.0 12.0 0.00 0.00 0.00 83 1007.4
20260509023515 79 90 6.0 12.0 0.00 0.00 0.00 83 1007.5
20260509023016 79 80 9.0 13.0 0.00 0.00 0.00 83 1007.4
20260509022016 79 75 8.0 12.0 0.00 0.00 0.00 82 1007.0
20260509021516 79 81 9.0 13.0 0.00 0.00 0.00 82 1007.0
20260509021015 79 79 9.0 14.0 0.00 0.00 0.00 82 1006.9
20260509020516 80 67 8.0 13.0 0.00 0.00 0.00 81 1006.8
20260509020015 80 80 8.0 12.0 0.00 0.00 0.00 81 1006.7
20260509015516 80 66 8.0 12.0 0.00 0.00 0.00 81 1006.6
20260509015015 80 69 8.0 12.0 0.00 0.00 0.00 81 1006.7
20260509014516 80 76 7.0 10.0 0.00 0.00 0.00 81 1006.6
20260509014016 80 92 8.0 13.0 0.00 0.00 0.00 81 1006.4
20260509013516 80 90 7.0 12.0 0.00 0.00 0.00 80 1006.4
20260509013016 80 83 7.0 9.0 0.00 0.00 0.00 80 1006.4
20260509012516 81 94 6.0 9.0 0.00 0.00 0.00 79 1006.4
20260509012015 81 86 8.0 10.0 0.00 0.00 0.00 79 1006.3
20260509011515 82 110 6.0 8.0 0.00 0.00 0.00 79 1006.3
20260509011016 82 100 6.0 9.0 0.00 0.00 0.00 78 1006.1
20260509010516 82 103 5.0 9.0 0.00 0.00 0.00 77 1006.2
20260509010015 82 111 6.0 9.0 0.00 0.00 0.00 76 1006.0
20260509005516 82 106 6.0 10.0 0.00 0.00 0.00 76 1006.0
20260509005016 83 107 7.0 10.0 0.00 0.00 0.00 75 1006.0
20260509004015 83 114 6.0 12.0 0.00 0.00 0.00 75 1005.9
20260509003515 83 113 4.0 8.0 0.00 0.00 0.00 76 1005.9
20260509003016 83 123 8.0 12.0 0.00 0.00 0.00 75 1006.0
20260509002515 83 132 5.0 9.0 0.00 0.00 0.00 76 1005.9
20260509002016 83 94 6.0 9.0 0.00 0.00 0.00 75 1005.8
20260509001015 83 118 7.0 14.0 0.00 0.00 0.00 76 1005.8
20260509000515 83 114 9.0 12.0 0.00 0.00 0.00 76 1005.6
20260509000015 83 101 7.0 12.0 0.00 0.00 0.00 76 1005.7
20260508235515 83 100 6.0 9.0 0.00 0.00 0.00 76 1005.9
20260508235016 83 96 6.0 9.0 0.00 0.00 0.00 76 1005.9
20260508234515 83 111 7.0 13.0 0.00 0.00 0.00 76 1005.8
20260508234015 83 103 9.0 14.0 0.00 0.00 0.00 76 1005.8
20260508233515 83 93 7.0 12.0 0.00 0.00 0.00 76 1005.8
20260508233015 83 88 9.0 13.0 0.00 0.00 0.00 75 1005.9
20260508232515 84 105 8.0 13.0 0.00 0.00 0.00 74 1005.7
20260508232015 84 88 9.0 14.0 0.00 0.00 0.00 73 1005.8
20260508231515 84 80 9.0 13.0 0.00 0.00 0.00 72 1006.1
20260508231016 85 111 9.0 13.0 0.00 0.00 0.00 71 1006.0
20260508230516 84 106 8.0 12.0 0.00 0.00 0.00 73 1005.9
20260508230015 84 107 7.0 12.0 0.00 0.00 0.00 73 1005.8
20260508225516 83 95 7.0 10.0 0.00 0.00 0.00 73 1005.8
20260508225015 83 92 7.0 10.0 0.00 0.00 0.00 72 1006.1
20260508224515 83 89 7.0 12.0 0.00 0.00 0.00 73 1005.8
20260508224015 83 92 5.0 9.0 0.00 0.00 0.00 72 1006.1
20260508223517 83 94 7.0 10.0 0.00 0.00 0.00 72 1006.0
20260508223016 83 106 7.0 10.0 0.00 0.00 0.00 72 1006.1
20260508222516 83 96 8.0 9.0 0.00 0.00 0.00 71 1006.3
20260508222016 84 92 8.0 10.0 0.00 0.00 0.00 71 1006.3
20260508221516 84 98 9.0 12.0 0.00 0.00 0.00 71 1006.3
20260508221015 84 120 8.0 12.0 0.00 0.00 0.00 70 1006.2
20260508215515 84 92 6.0 12.0 0.00 0.00 0.00 71 1006.0
20260508215016 83 109 9.0 16.0 0.00 0.00 0.00 70 1005.5
20260508214515 84 106 10.0 14.0 0.00 0.00 0.00 70 1005.6
20260508214016 84 120 7.0 10.0 0.00 0.00 0.00 70 1006.0
20260508213517 84 118 9.0 13.0 0.00 0.00 0.00 70 1006.3
20260508213016 84 108 7.0 10.0 0.00 0.00 0.00 69 1006.3
20260508212515 84 109 7.0 10.0 0.00 0.00 0.00 68 1006.4
20260508212015 84 119 7.0 9.0 0.00 0.00 0.00 67 1006.7
20260508211515 84 81 6.0 9.0 0.00 0.00 0.00 68 1007.0
20260508211016 84 86 5.0 8.0 0.00 0.00 0.00 68 1007.0
20260508210015 84 105 8.0 12.0 0.00 0.00 0.00 67 1007.0
20260508205516 84 70 6.0 9.0 0.00 0.00 0.00 68 1007.3
20260508205015 84 70 6.0 9.0 0.00 0.00 0.00 67 1007.3
20260508204515 84 90 7.0 10.0 0.00 0.00 0.00 67 1007.3
20260508204015 84 90 6.0 9.0 0.00 0.00 0.00 67 1007.4
20260508203515 84 64 7.0 12.0 0.00 0.00 0.00 67 1007.3
20260508203015 84 45 5.0 9.0 0.00 0.00 0.00 67 1007.5
20260508202516 84 61 6.0 9.0 0.00 0.00 0.00 67 1007.6
20260508202015 84 29 3.0 8.0 0.00 0.00 0.00 68 1007.6
20260508201515 84 33 6.0 8.0 0.00 0.00 0.00 68 1007.6
20260508201015 83 44 6.0 9.0 0.00 0.00 0.00 67 1007.7
20260508200016 83 74 6.0 9.0 0.00 0.00 0.00 68 1007.6
20260508195015 83 74 5.0 8.0 0.00 0.00 0.00 68 1007.7
20260508194515 82 101 6.0 9.0 0.00 0.00 0.00 69 1007.9
20260508194016 82 71 4.0 9.0 0.00 0.00 0.00 71 1007.9
20260508193515 81 95 3.0 8.0 0.00 0.00 0.00 71 1008.0
20260508193015 81 31 3.0 8.0 0.00 0.00 0.00 71 1007.9
20260508192515 81 42 6.0 9.0 0.00 0.00 0.00 70 1008.2
20260508192016 81 346 5.0 7.0 0.00 0.00 0.00 71 1008.3
20260508191516 81 85 4.0 8.0 0.00 0.00 0.00 71 1008.4
20260508191015 81 35 4.0 8.0 0.00 0.00 0.00 71 1008.4
20260508190015 80 57 2.0 6.0 0.00 0.00 0.00 72 1008.5
20260508185515 80 94 5.0 8.0 0.00 0.00 0.00 72 1008.7
20260508185016 80 37 2.0 8.0 0.00 0.00 0.00 71 1008.6
20260508184515 80 57 5.0 7.0 0.00 0.00 0.00 72 1008.6
20260508184015 80 25 3.0 8.0 0.00 0.00 0.00 73 1008.7
20260508183016 80 40 4.0 6.0 0.00 0.00 0.00 73 1008.8
20260508182515 80 105 5.0 8.0 0.00 0.00 0.00 75 1009.0
20260508181514 80 49 3.0 7.0 0.00 0.00 0.00 73 1009.3
20260508181015 80 72 3.0 6.0 0.00 0.00 0.00 74 1009.2
20260508180515 80 102 2.0 5.0 0.00 0.00 0.00 74 1009.3
20260508180015 79 92 3.0 7.0 0.00 0.00 0.00 74 1009.3
20260508175516 79 131 3.0 6.0 0.00 0.00 0.00 75 1009.4
20260508175015 79 52 4.0 6.0 0.00 0.00 0.00 74 1009.6
20260508174015 79 65 2.0 5.0 0.00 0.00 0.00 74 1009.7
20260508173516 78 48 1.0 3.0 0.00 0.00 0.00 74 1009.8
20260508172518 78 338 1.0 3.0 0.00 0.00 0.00 74 1009.9
20260508172016 77 356 2.0 3.0 0.00 0.00 0.00 74 1010.0
20260508171515 77 314 2.0 3.0 0.00 0.00 0.00 76 1010.1
20260508171015 77 70 3.0 5.0 0.00 0.00 0.00 75 1010.0
20260508170015 76 339 3.0 6.0 0.00 0.00 0.00 76 1010.1
20260508165516 76 15 4.0 7.0 0.00 0.00 0.00 76 1010.3
20260508164514 75 7 5.0 7.0 0.00 0.00 0.00 77 1010.4
20260508164015 75 3 5.0 8.0 0.00 0.00 0.00 76 1010.4
20260508163015 75 357 5.0 7.0 0.00 0.00 0.00 77 1010.6
20260508162515 75 340 5.0 8.0 0.00 0.00 0.00 78 1010.6
20260508162015 74 355 6.0 8.0 0.00 0.00 0.00 78 1010.6
20260508161514 74 1 6.0 7.0 0.00 0.00 0.00 77 1010.6
20260508161015 74 347 6.0 8.0 0.00 0.00 0.00 78 1010.7
20260508160515 74 355 6.0 8.0 0.00 0.00 0.00 77 1010.9
20260508160015 74 358 6.0 8.0 0.00 0.00 0.00 77 1010.9
20260508155514 74 350 6.0 9.0 0.00 0.00 0.00 77 1011.1
20260508155015 75 5 6.0 9.0 0.00 0.00 0.00 77 1010.8
20260508153516 75 335 7.0 9.0 0.00 0.00 0.00 79 1011.1
20260508153015 76 347 5.0 8.0 0.00 0.00 0.00 79 1011.0
20260508152515 76 27 4.0 6.0 0.00 0.00 0.00 79 1011.2
20260508152015 76 32 5.0 8.0 0.00 0.00 0.00 79 1011.1
20260508151515 76 21 2.0 8.0 0.00 0.00 0.00 78 1011.3
20260508151016 76 35 3.0 5.0 0.00 0.00 0.00 78 1011.4
20260508150515 76 40 3.0 6.0 0.00 0.00 0.00 79 1011.3
20260508150014 75 91 5.0 6.0 0.00 0.00 0.00 79 1011.3
20260508145515 75 50 3.0 6.0 0.00 0.00 0.00 79 1011.3
20260508145015 75 35 3.0 5.0 0.00 0.00 0.00 79 1011.4
20260508144515 75 117 3.0 6.0 0.00 0.00 0.00 79 1011.5
20260508144016 75 96 5.0 6.0 0.00 0.00 0.00 80 1011.6
20260508143516 75 106 4.0 6.0 0.00 0.00 0.00 80 1011.7
20260508142514 74 36 2.0 6.0 0.00 0.00 0.00 80 1011.5
20260508142015 75 23 3.0 5.0 0.00 0.00 0.00 80 1011.5
20260508141515 74 21 4.0 6.0 0.00 0.00 0.00 80 1011.5
20260508141015 74 7 4.0 6.0 0.00 0.00 0.00 81 1011.5
20260508140515 74 132 2.0 3.0 0.00 0.00 0.00 81 1011.4
20260508140014 73 112 4.0 6.0 0.00 0.00 0.00 81 1011.3
20260508134515 73 115 6.0 9.0 0.00 0.00 0.00 82 1011.1
20260508133515 72 116 6.0 9.0 0.00 0.00 0.00 82 1011.4
20260508133017 72 105 6.0 13.0 0.00 0.00 0.00 82 1011.3
20260508132514 71 135 7.0 10.0 0.00 0.00 0.00 82 1011.5
20260508131515 71 121 9.0 13.0 0.00 0.00 0.00 81 1011.4
20260508131015 71 117 9.0 13.0 0.00 0.00 0.00 82 1011.1
20260508130014 70 87 7.0 9.0 0.00 0.00 0.00 83 1011.0
20260508125016 69 117 6.0 8.0 0.00 0.00 0.00 82 1011.9
20260508124514 69 134 6.0 8.0 0.00 0.00 0.00 82 1012.0
20260508124015 69 118 5.0 7.0 0.00 0.00 0.00 82 1011.9
20260508123516 69 102 5.0 8.0 0.00 0.00 0.00 82 1011.8
20260508123016 69 59 7.0 10.0 0.00 0.00 0.00 82 1011.5
20260508122514 69 35 7.0 10.0 0.00 0.00 0.00 82 1011.4
20260508122018 69 34 6.0 8.0 0.00 0.00 0.00 83 1011.5
20260508121514 69 45 6.0 9.0 0.00 0.00 0.00 82 1011.3
20260508121016 69 51 6.0 8.0 0.00 0.00 0.00 82 1011.3
20260508120016 69 37 6.0 9.0 0.00 0.00 0.00 81 1011.5
20260508115514 69 60 5.0 7.0 0.00 0.00 0.00 81 1011.8
20260508115017 69 1 5.0 7.0 0.00 0.00 0.00 81 1011.9
20260508114514 69 4 5.0 8.0 0.00 0.00 0.00 81 1011.8
20260508114015 69 359 6.0 9.0 0.00 0.00 0.00 81 1011.9
20260508113515 69 357 10.0 14.0 0.00 0.00 0.00 81 1011.9
20260508113015 69 357 9.0 14.0 0.00 0.00 0.00 81 1011.8
20260508112514 69 1 9.0 14.0 0.00 0.00 0.00 81 1011.9
20260508112017 69 1 8.0 13.0 0.00 0.00 0.00 81 1011.9
20260508110515 69 3 12.0 16.0 0.00 0.00 0.00 82 1011.8
20260508110014 69 352 12.0 16.0 0.00 0.00 0.00 82 1011.7
20260508105515 69 0 9.0 14.0 0.00 0.00 0.00 83 1011.7
20260508105016 69 350 10.0 13.0 0.00 0.00 0.00 83 1011.7
20260508104516 69 354 8.0 12.0 0.00 0.00 0.00 83 1011.7
20260508103515 69 349 9.0 12.0 0.00 0.00 0.00 86 1011.5
20260508103015 69 347 7.0 9.0 0.00 0.00 0.00 87 1011.4
20260508102515 69 349 6.0 9.0 0.00 0.00 0.00 88 1011.3
20260508102016 69 2 5.0 8.0 0.00 0.00 0.00 89 1011.0
20260508101515 68 0 6.0 8.0 0.00 0.00 0.00 90 1010.9
20260508101015 68 2 5.0 7.0 0.00 0.00 0.00 91 1010.8
20260508100515 68 11 3.0 6.0 0.00 0.00 0.00 91 1010.7
20260508100015 68 24 5.0 7.0 0.00 0.00 0.00 91 1010.7
20260508095514 68 15 5.0 6.0 0.00 0.00 0.00 91 1010.8
20260508095019 68 22 5.0 6.0 0.00 0.00 0.00 91 1010.6
20260508094515 68 44 5.0 7.0 0.00 0.00 0.00 91 1010.5
20260508093515 69 358 4.0 7.0 0.00 0.00 0.00 91 1011.0
20260508093015 69 24 5.0 7.0 0.00 0.00 0.00 91 1010.8
20260508092515 69 51 4.0 6.0 0.00 0.00 0.00 90 1011.0
20260508092015 69 342 2.0 6.0 0.00 0.00 0.00 90 1011.8
20260508091515 69 7 4.0 6.0 0.00 0.00 0.00 90 1011.3
20260508091015 68 356 3.0 5.0 0.00 0.00 0.00 90 1011.3
20260508090014 68 12 3.0 3.0 0.00 0.00 0.00 91 1011.1
20260508085514 68 30 2.0 3.0 0.00 0.00 0.00 91 1010.9
20260508085016 68 61 2.0 5.0 0.00 0.00 0.00 91 1010.9
20260508084514 68 93 3.0 6.0 0.00 0.00 0.00 92 1010.9
20260508084014 68 75 3.0 5.0 0.00 0.00 0.00 92 1011.1
20260508083515 68 66 2.0 5.0 0.00 0.00 0.00 92 1011.5
20260508083015 68 39 3.0 5.0 0.00 0.00 0.00 92 1011.6